[[{"header":{"parameterUnit":"m.s-1","parameterCategory":1,"la1":30.2991,"la2":30.254,"lo1":-89.0895,"lo2":-89.0444,"dy":0.0017,"dx":0.0017,"nx":28,"ny":28,"refTime":"2023-08-18T21:00:00:Z","depth":0,"parameterNumber":2,"parameterNumberName":"U-component_of_WINDS"},"data":[0,0,0,0,0,0,0,0,0,0,0,0,0,0,0,0,0,0,0,0,0,0,0,0,0,0,0,0,0,0,0,0,0,0,0,0,0,0,0,0,0,0,0,0,0,0,0,0,0,0,0,0,0,0,0,0,0,0,2.9598,2.96,0,2.9723,2.9724,2.9725,2.9702,2.97,2.9698,2.9696,2.9823,2.9828,2.9834,0,0,0,0,0,0,0,0,0,0,0,0,0,2.9341,2.9346,2.9598,2.96,2.9601,2.9722,2.9724,2.9726,2.9703,2.97,2.9697,2.9695,2.9821,2.9828,2.9834,0,0,0,0,0,0,0,0,0,0,0,0,0,2.9458,2.9347,2.9598,2.9604,2.9606,2.9722,2.9724,2.9726,2.9703,2.97,2.9697,2.9694,2.9819,2.9827,2.9835,2.9952,0,0,2.986,2.9864,0,0,0,0,0,0,0,0,2.9451,2.9467,2.9602,2.9604,2.9606,2.9694,2.968,2.9802,2.9704,2.9666,2.9696,2.9692,2.9783,2.9794,2.9824,2.9958,2.9964,2.9861,2.9866,2.9869,2.9872,0,0,0,0,0,0,0,2.9443,2.9462,2.9647,2.9604,2.9607,2.9601,2.9614,2.9703,2.9742,2.9669,2.9668,2.9683,2.9783,2.9816,2.9827,2.9966,2.9861,2.9868,2.9873,2.9876,3.0202,3.0205,0,0,0,0,0,0,2.9433,2.9455,2.9643,2.9651,2.9519,2.9608,2.9623,2.9669,2.9741,2.9748,2.9686,2.9682,2.9804,2.9818,2.9831,2.9973,2.9869,2.9877,2.9882,3.0198,3.0202,3.0206,0,0,0,0,0,0,2.9427,2.945,2.9638,2.9553,2.9576,2.9616,2.9668,2.9673,2.9706,2.9753,2.976,2.9713,2.9802,2.982,2.9922,2.9977,2.9881,2.9888,3.0193,3.0199,3.0204,3.0257,0,0,0,0,0,0,2.942,2.9448,2.9493,2.9554,2.9581,2.9727,2.9672,2.9678,2.972,2.9716,2.978,2.9787,2.9801,2.991,2.993,2.9986,2.9894,3.0189,3.0196,3.0203,3.025,3.0263,3.0274,0,0,0,0,0,2.9411,2.9503,2.9495,2.9518,2.9638,2.9731,2.9746,2.976,2.9725,2.977,2.98,2.9785,2.9968,2.9921,2.9943,3.0003,3.0185,3.0194,3.0202,3.0245,3.0261,3.0274,0,0,0,0,0,0,2.9447,2.9511,2.9503,2.9618,2.9669,2.9726,2.9784,2.9776,2.9838,2.9832,2.9846,2.986,2.9964,2.9994,2.994,3.012,3.0072,3.0085,3.0096,3.0112,3.0124,3.0114,2.9901,0,0,0,0,0,2.9468,2.9538,2.959,2.9686,2.9712,2.9744,2.9785,2.9791,2.9844,2.9866,2.9903,2.9956,3.0025,3.007,3.0137,3.0255,3.0268,3.0307,3.0319,3.0329,3.034,3.0404,3.0421,3.0234,3.0234,3.0234,0,0,2.9513,2.9556,2.96,2.9694,2.9735,2.9807,2.9762,2.984,2.9894,2.9878,2.9976,3.0006,3.0066,3.0176,3.0227,3.0204,3.0394,3.0339,3.0347,3.0352,3.0414,3.0432,3.0447,3.024,3.0239,3.0238,0,0,2.963,2.9671,2.9755,2.9796,2.9858,2.9878,2.9899,2.9958,2.9977,3.0076,3.0066,3.013,3.0249,3.0291,3.0329,3.0463,3.0451,3.0484,3.0548,3.061,3.0625,3.0638,3.0685,3.0702,3.0495,3.0496,3.0496,0,2.9678,2.9786,2.9799,2.9878,2.992,2.9909,2.9994,3.0034,3.0114,3.0143,3.0117,3.0266,3.0305,3.0425,3.0458,3.0489,3.0512,3.0477,3.0622,3.0635,3.0647,3.0692,3.071,3.0499,3.0499,3.0498,3.0498,0,2.9841,2.9916,2.9976,3.0054,3.0103,3.0184,3.021,3.0258,3.026,3.0283,3.0384,3.0431,3.0507,3.0536,3.0539,3.0657,3.0641,3.0618,3.057,3.0668,3.0711,3.0728,3.0504,3.0503,3.0502,3.0501,0,0,2.9984,3.0068,3.009,3.0124,3.0192,3.025,3.0332,3.0405,3.0446,3.0502,3.057,3.0671,3.065,3.0693,3.0701,3.0755,3.0858,3.0726,3.0728,3.0748,3.099,3.1006,3.1026,3.0851,3.0854,3.0857,3.0985,0,3.0107,3.025,3.0264,3.0392,3.0461,3.0452,3.0523,3.0572,3.0596,3.0659,3.0685,3.0756,3.0724,3.075,3.0804,3.0834,3.0907,3.0825,3.0914,3.0917,3.0898,3.1048,3.1065,3.1183,3.1001,3.1004,3.1006,0,3.0269,3.033,3.0465,3.0522,3.0552,3.0615,3.0684,3.0744,3.0799,3.0813,3.086,3.0861,3.0945,3.0894,3.1009,3.0954,3.0991,3.1012,3.1016,3.1024,3.0967,3.1059,3.1221,3.1238,3.1033,3.1031,3.1029,0,3.0359,3.0474,3.057,3.06,3.067,3.0715,3.0746,3.0798,3.0841,3.0902,3.093,3.0999,3.1037,3.109,3.111,3.1071,3.1224,3.1175,3.1237,3.1237,3.1269,3.1266,3.1438,3.1295,3.1295,3.1294,3.1294,0,3.0494,3.0577,3.0611,3.0669,3.0762,3.0778,3.0868,3.0898,3.0944,3.1008,3.1005,3.1065,3.1087,3.1151,3.1167,3.126,3.1277,3.129,3.1293,3.129,3.1288,3.1314,3.1306,3.1299,3.1298,3.1297,3.1296,0,3.061,3.0636,3.0739,3.0797,3.0813,3.0879,3.0928,3.0984,3.1008,3.1089,3.1109,3.1146,3.1221,3.1246,3.1337,3.1347,3.1455,3.1451,3.1436,3.1436,3.1496,3.149,3.169,3.1716,3.1556,3.1558,3.1559,0,3.0694,3.0757,3.0822,3.0864,3.0897,3.0966,3.101,3.1028,3.1074,3.1142,3.1191,3.1265,3.1325,3.1446,3.1481,3.155,3.1547,3.1613,3.1558,3.1552,3.1547,3.1543,3.1549,3.1623,3.1624,3.1626,3.1627,0,3.084,3.085,3.0913,3.0982,3.1035,3.109,3.1143,3.1178,3.1204,3.1256,3.1332,3.1379,3.1472,3.1545,3.1616,3.1648,3.1642,3.1644,3.1662,3.1658,3.1646,3.1653,3.1463,3.1639,3.1638,3.1637,3.1636,3.1636,3.0942,3.0997,3.1051,3.1122,3.1164,3.1214,3.1269,3.13,3.1364,3.144,3.1448,3.153,3.1584,3.1678,3.1714,3.1779,3.176,3.1787,3.1793,3.1799,3.1803,3.1637,3.1792,3.1792,3.1792,3.1791,3.1791,0,3.1087,3.1121,3.1187,3.1261,3.1316,3.1306,3.1364,3.1411,3.1484,3.1535,3.1594,3.1682,3.1753,3.1794,3.1866,3.1909,3.1908,3.1928,3.1924,3.1931,3.1816,3.1793,3.1927,3.1927,3.1927,3.1927,3.1927,3.1927,3.1169,3.1262,3.1279,3.1392,3.1426,3.1507,3.1541,3.1586,3.1627,3.1725,3.1784,3.181,3.1857,3.1932,3.1997,3.2007,3.2033,3.2054,3.2062,3.1954,3.1939,3.1926,3.1904,3.206,3.206,3.2172,3.2173,3.2174]},{"header":{"parameterUnit":"m.s-1","parameterCategory":1,"la1":30.2991,"la2":30.254,"lo1":-89.0895,"lo2":-89.0444,"dy":0.0017,"dx":0.0017,"nx":28,"ny":28,"refTime":"2023-08-18T21:00:00:Z","depth":0,"parameterNumber":3,"parameterNumberName":"V-component_of_WINDS"},"data":[0,0,0,0,0,0,0,0,0,0,0,0,0,0,0,0,0,0,0,0,0,0,0,0,0,0,0,0,0,0,0,0,0,0,0,0,0,0,0,0,0,0,0,0,0,0,0,0,0,0,0,0,0,0,0,0,0,0,-0.5003,-0.5003,0,-0.5037,-0.5037,-0.5038,-0.5055,-0.5055,-0.5055,-0.5055,-0.5089,-0.509,-0.5091,0,0,0,0,0,0,0,0,0,0,0,0,0,-0.4951,-0.4952,-0.5003,-0.5003,-0.5003,-0.5037,-0.5037,-0.5038,-0.5055,-0.5055,-0.5055,-0.5055,-0.5089,-0.509,-0.5091,0,0,0,0,0,0,0,0,0,0,0,0,0,-0.4978,-0.4952,-0.5002,-0.5016,-0.5018,-0.5037,-0.5037,-0.5038,-0.5055,-0.5055,-0.5055,-0.5055,-0.5088,-0.509,-0.5091,-0.5099,0,0,-0.5095,-0.5096,0,0,0,0,0,0,0,0,-0.4977,-0.498,-0.5014,-0.5015,-0.5017,-0.5042,-0.5032,-0.5058,-0.5055,-0.5041,-0.5055,-0.5055,-0.5073,-0.5076,-0.5082,-0.51,-0.5102,-0.5095,-0.5096,-0.5097,-0.5097,0,0,0,0,0,0,0,-0.4975,-0.4979,-0.5016,-0.5014,-0.5016,-0.502,-0.5024,-0.5037,-0.5056,-0.5042,-0.5043,-0.5047,-0.5074,-0.5081,-0.5083,-0.5102,-0.5095,-0.5096,-0.5097,-0.5098,-0.5129,-0.5129,0,0,0,0,0,0,-0.4971,-0.4977,-0.5015,-0.5017,-0.4996,-0.5021,-0.5025,-0.5034,-0.5056,-0.506,-0.5047,-0.5048,-0.5079,-0.5081,-0.5084,-0.5095,-0.5097,-0.5098,-0.5099,-0.5129,-0.5129,-0.5129,0,0,0,0,0,0,-0.497,-0.4974,-0.5014,-0.4997,-0.5003,-0.5022,-0.5031,-0.5034,-0.5041,-0.506,-0.5064,-0.505,-0.5079,-0.5082,-0.5095,-0.5097,-0.5098,-0.51,-0.5129,-0.5129,-0.5129,-0.5117,0,0,0,0,0,0,-0.4968,-0.4973,-0.4977,-0.4997,-0.5004,-0.5024,-0.5031,-0.5035,-0.5044,-0.5045,-0.5064,-0.5068,-0.5079,-0.5093,-0.5097,-0.5099,-0.5101,-0.5129,-0.5129,-0.5129,-0.5117,-0.5117,-0.5116,0,0,0,0,0,-0.4966,-0.4972,-0.4977,-0.4981,-0.5008,-0.5024,-0.5028,-0.5041,-0.5044,-0.5047,-0.5059,-0.5067,-0.5096,-0.5094,-0.5098,-0.5101,-0.5129,-0.5129,-0.5129,-0.5118,-0.5117,-0.5116,0,0,0,0,0,0,-0.495,-0.4975,-0.4981,-0.4993,-0.5007,-0.5027,-0.5032,-0.504,-0.5052,-0.5053,-0.5069,-0.5073,-0.5084,-0.5094,-0.5092,-0.511,-0.5113,-0.5114,-0.5103,-0.5102,-0.5102,-0.5099,-0.5102,0,0,0,0,0,-0.4948,-0.496,-0.498,-0.4989,-0.4996,-0.5013,-0.502,-0.5029,-0.5044,-0.5049,-0.5062,-0.5076,-0.5088,-0.5096,-0.5108,-0.5119,-0.5123,-0.5122,-0.5122,-0.5121,-0.5122,-0.5128,-0.5128,-0.513,-0.513,-0.513,0,0,-0.4944,-0.4959,-0.4965,-0.4986,-0.4998,-0.5009,-0.5017,-0.5028,-0.5037,-0.5051,-0.5064,-0.5074,-0.509,-0.5102,-0.5108,-0.511,-0.5122,-0.5121,-0.5121,-0.5122,-0.5128,-0.5128,-0.5128,-0.513,-0.513,-0.513,0,0,-0.4943,-0.4955,-0.4964,-0.4975,-0.4993,-0.5004,-0.5006,-0.5026,-0.5033,-0.5047,-0.5057,-0.5067,-0.5088,-0.5099,-0.5107,-0.511,-0.5118,-0.5114,-0.511,-0.5116,-0.5116,-0.5116,-0.5118,-0.5118,-0.5114,-0.5114,-0.5114,0,-0.4935,-0.4953,-0.4967,-0.4978,-0.4987,-0.5001,-0.501,-0.502,-0.5041,-0.5046,-0.5049,-0.5075,-0.5087,-0.5102,-0.5103,-0.5109,-0.5112,-0.5112,-0.5115,-0.5115,-0.5116,-0.5117,-0.5117,-0.5114,-0.5114,-0.5114,-0.5114,0,-0.4943,-0.4955,-0.496,-0.498,-0.4989,-0.4999,-0.5015,-0.5023,-0.5031,-0.5042,-0.5056,-0.5071,-0.5086,-0.509,-0.5098,-0.5107,-0.5107,-0.5112,-0.5116,-0.5115,-0.5116,-0.5117,-0.5113,-0.5113,-0.5113,-0.5113,0,0,-0.4932,-0.496,-0.4962,-0.4971,-0.4991,-0.5001,-0.5011,-0.5027,-0.5034,-0.5047,-0.5056,-0.5074,-0.5078,-0.5088,-0.5097,-0.5103,-0.5104,-0.5107,-0.5108,-0.5106,-0.5114,-0.5111,-0.5111,-0.511,-0.511,-0.511,-0.5113,0,-0.4933,-0.4953,-0.4967,-0.4981,-0.4992,-0.5006,-0.5015,-0.5028,-0.5039,-0.505,-0.5061,-0.5073,-0.5079,-0.5085,-0.5091,-0.5103,-0.5106,-0.5103,-0.5118,-0.5119,-0.5114,-0.5112,-0.5108,-0.511,-0.5114,-0.5114,-0.5114,0,-0.4937,-0.4951,-0.4967,-0.4986,-0.4992,-0.5,-0.5015,-0.5025,-0.5041,-0.5048,-0.5059,-0.5069,-0.508,-0.5083,-0.5099,-0.5097,-0.5104,-0.5111,-0.5111,-0.5113,-0.5116,-0.5114,-0.5111,-0.5112,-0.5115,-0.5115,-0.5115,0,-0.4928,-0.495,-0.4963,-0.497,-0.4993,-0.4999,-0.5008,-0.5024,-0.5033,-0.5046,-0.5052,-0.5066,-0.5074,-0.5085,-0.5099,-0.51,-0.5114,-0.5118,-0.512,-0.512,-0.5122,-0.5122,-0.5121,-0.5127,-0.5127,-0.5126,-0.5126,0,-0.4928,-0.4937,-0.4959,-0.4967,-0.4977,-0.4993,-0.5003,-0.5013,-0.5027,-0.5037,-0.5049,-0.5058,-0.5075,-0.5086,-0.5097,-0.5109,-0.5112,-0.5118,-0.5121,-0.5117,-0.5116,-0.5122,-0.5122,-0.5127,-0.5127,-0.5127,-0.5127,0,-0.492,-0.4935,-0.4949,-0.497,-0.4975,-0.4982,-0.5,-0.5007,-0.5019,-0.5031,-0.5035,-0.5052,-0.5066,-0.5081,-0.5099,-0.5106,-0.5117,-0.5121,-0.5112,-0.5114,-0.5116,-0.5115,-0.5118,-0.5119,-0.5124,-0.5124,-0.5124,0,-0.4919,-0.4926,-0.4948,-0.4955,-0.4965,-0.4977,-0.4986,-0.5001,-0.501,-0.5029,-0.5034,-0.5049,-0.5061,-0.5082,-0.5097,-0.5111,-0.5115,-0.5115,-0.5117,-0.5114,-0.5115,-0.5115,-0.5116,-0.5115,-0.5114,-0.5114,-0.5114,0,-0.4916,-0.4923,-0.4935,-0.4951,-0.4961,-0.4974,-0.4987,-0.4993,-0.5011,-0.502,-0.5034,-0.5044,-0.5063,-0.5077,-0.5093,-0.5103,-0.5112,-0.5113,-0.5115,-0.5111,-0.5106,-0.5109,-0.5111,-0.5113,-0.5113,-0.5113,-0.5114,-0.5114,-0.4911,-0.4918,-0.4935,-0.4948,-0.496,-0.4972,-0.4981,-0.4993,-0.5005,-0.5022,-0.5031,-0.5045,-0.506,-0.5083,-0.5093,-0.5104,-0.5106,-0.5108,-0.5109,-0.5109,-0.5108,-0.5104,-0.5107,-0.5107,-0.5107,-0.5107,-0.5107,0,-0.4908,-0.492,-0.4932,-0.4951,-0.4961,-0.4969,-0.4984,-0.4992,-0.5005,-0.5019,-0.5031,-0.5047,-0.5061,-0.5077,-0.5092,-0.5098,-0.5103,-0.5102,-0.5101,-0.5104,-0.5105,-0.5102,-0.5098,-0.5098,-0.5098,-0.5098,-0.5098,-0.5098,-0.4908,-0.4921,-0.493,-0.4949,-0.496,-0.4975,-0.4983,-0.4994,-0.5005,-0.5023,-0.5035,-0.5045,-0.506,-0.5076,-0.5089,-0.5093,-0.5098,-0.5096,-0.5102,-0.5103,-0.5103,-0.5104,-0.5102,-0.5097,-0.5097,-0.51,-0.51,-0.51]}]]